Natchez, MS

2:59 PM CST on November 17, 2019 (GMT -0600)
Hardy-Anders-Adams County

Weather History for KHEZ - September, 2019

Change the Weather History Date:

Thursday, September 5, 2019

  Actual Average Record
Temperature  
Mean Temperature 82 °F -  
Max Temperature 95 °F 88 °F 100 °F (1932)
Min Temperature 69 °F 68 °F 54 °F (1934)
Cooling Degree Days 17    
Growing Degree Days 32 (Base 50)    
Moisture  
Dew Point 71 °F    
Average Humidity 74    
Maximum Humidity 97    
Minimum Humidity 46    
Precipitation  
Precipitation 0.00 in - - ()
Sea Level Pressure  
Sea Level Pressure 30.04 in    
Wind  
Wind Speed 1 mph (North)    
Max Wind Speed 8 mph    
Max Gust Speed -    
Visibility 10 miles    
Events      
Averages and records for this station are not official NWS values.
T = Trace of Precipitation, MM = Missing Value Source: NWS Daily Summary

Daily Weather History Graph

Daily Weather History Graph

Search for Another Location

Airport or City:

Astronomy

Sep. 05, 2019 Rise Set
Actual Time 6:43 AM CDT 7:24 PM CDT
Civil Twilight 6:18 AM CDT 7:48 PM CDT
Nautical Twilight 5:49 AM CDT 8:17 PM CDT
Astronomical Twilight 5:19 AM CDT 8:47 PM CDT
Moon 1:24 PM CDT (9/5) No Moon Set
Length of Visible Light 13h 30m
Length of Day
12h 41m
Waxing Crescent, 45% of the Moon is Illuminated
Sep 5
Waxing Crescent
Sep 5
First Quarter
Sep 13
Full
Sep 21
Last Quarter
Sep 28
New

Hourly Weather History & Observations

Time (CDT) Temp. Heat Index Dew Point Humidity Pressure Visibility Wind Dir Wind Speed Gust Speed Precip Events Conditions
12:56 AM 72.0 °F - 71.1 °F 97% 30.03 in 10.0 mi Calm Calm - N/A   Clear
1:56 AM 72.0 °F - 70.0 °F 93% 30.03 in 10.0 mi Calm Calm - N/A   Clear
2:56 AM 70.0 °F - 69.1 °F 97% 30.03 in 10.0 mi Calm Calm - N/A   Clear
3:56 AM 70.0 °F - 68.0 °F 93% 30.03 in 10.0 mi Calm Calm - N/A   Clear
4:56 AM 70.0 °F - 68.0 °F 93% 30.04 in 10.0 mi Calm Calm - N/A   Clear
5:56 AM 70.0 °F - 68.0 °F 93% 30.06 in 10.0 mi Calm Calm - N/A   Clear
6:56 AM 69.1 °F - 68.0 °F 96% 30.06 in 10.0 mi Calm Calm - N/A   Clear
7:56 AM 73.0 °F - 70.0 °F 90% 30.09 in 10.0 mi Calm Calm - N/A   Clear
9:56 AM 86.0 °F 91.5 °F 71.1 °F 61% 30.10 in 4.0 mi Calm Calm - N/A   Haze
10:56 AM 89.1 °F 95.0 °F 71.1 °F 55% 30.10 in 10.0 mi Calm Calm - N/A   Clear
11:56 AM 91.0 °F 97.6 °F 71.1 °F 52% 30.10 in 10.0 mi NNW 6.9 mph - N/A   Clear
12:56 PM 91.9 °F 99.5 °F 72.0 °F 52% 30.09 in 10.0 mi NNE 6.9 mph - N/A   Partly Cloudy
1:56 PM 91.9 °F 99.5 °F 72.0 °F 52% 30.06 in 10.0 mi Variable 6.9 mph - N/A   Scattered Clouds
2:56 PM 93.9 °F 100.8 °F 71.1 °F 47% 30.04 in 10.0 mi NW 8.1 mph - N/A   Partly Cloudy
3:56 PM 95.0 °F 102.5 °F 71.1 °F 46% 30.02 in 10.0 mi NNW 6.9 mph - N/A   Clear
4:56 PM 93.9 °F 100.3 °F 70.0 °F 46% 30.01 in 10.0 mi Variable 5.8 mph - N/A   Clear
5:56 PM 93.9 °F 100.3 °F 70.0 °F 46% 30.00 in 10.0 mi North 3.5 mph - N/A   Clear
6:56 PM 90.0 °F 100.2 °F 75.0 °F 61% 29.99 in 10.0 mi Calm Calm - N/A   Clear
7:56 PM 82.9 °F 90.2 °F 75.0 °F 77% 30.00 in 10.0 mi Calm Calm - N/A   Clear
8:56 PM 81.0 °F 86.7 °F 75.0 °F 82% 30.01 in 9.0 mi Calm Calm - N/A   Clear
9:56 PM 79.0 °F - 75.9 °F 90% 30.02 in 10.0 mi SSE 3.5 mph - N/A   Clear
10:56 PM 77.0 °F - 75.0 °F 94% 30.01 in 10.0 mi Calm Calm - N/A   Clear
11:56 PM 77.0 °F - 73.9 °F 90% 30.01 in 10.0 mi Calm Calm - N/A   Clear